Weather Roundup
Issued by NWS

Home | Current Version | Previous Version | Text Only | Print | Product List | Glossary On
Versions: 1 2 3 4 5 6 7 8 9 10 11 12 13 14 15 16 17 18 19 20 21 22 23 24 25 26 27 28 29 30 31 32 33 34 35 36 37 38 39 40 41 42 43 44 45 46 47 48 49 50
000
NZUS93 KARX 301310
HRRWXR

CURRENT HOURLY OBSERVATIONS ACROSS
MUCH OF THE UPPER MISSISSIPPI VALLEY
NATIONAL WEATHER SERVICE LA CROSSE WI
800 AM CDT THU MAR 30 2017


...SOUTHEAST MINNESOTA...


CITY           SKY/WX    TMP DP  RH WIND       PRES   REMARKS
ROCHESTER      CLOUDY    36  36 100 NE15      29.85F FOG     WCI  27
ROCHESTER/MAYO CLOUDY    37  37 100 NE8       29.86F WCI  30
WINONA         CLOUDY    37  36  93 E7G17     29.89F WCI  32
AUSTIN         CLOUDY    37  34  87 NE14G21   29.83S WCI  29
ALBERT LEA     LGT RAIN  36  36 100 NE14      29.83F WCI  27
DODGE CENTER   CLOUDY    36  36 100 NE20G25   29.85F FOG     WCI  25
PRESTON        CLOUDY    35  34  95 NE8       29.84S FOG     WCI  29
OWATONNA       CLOUDY    37  36  93 NE16G22   29.87S WCI  28
FARIBAULT      CLOUDY    37  36  93 N10G18    29.89F WCI  30
$$

...ELSEWHERE IN MINNESOTA...


CITY           SKY/WX    TMP DP  RH WIND       PRES   REMARKS
MINNEAPOLIS    CLOUDY    39  34  82 E14       29.94S WCI  31
INTNL FALLS      N/A     29  24  82 E5        30.03S WCI  24
DULUTH         CLOUDY    32  29  88 E9        30.01F WCI  24
RED WING       CLOUDY    37  36  93 E7        29.92S WCI  32
REDWOOD FALLS  CLOUDY    39  36  89 NE8       29.90F WCI  33
MANKATO        CLOUDY    38  35  89 NE17      29.87F WCI  28
WORTHINGTON    CLOUDY    36  35  96 NE15      29.85S WCI  27
FAIRMONT       CLOUDY    37  35  92 NE18      29.84S WCI  27
$$

...SOUTHWEST WISCONSIN...


CITY           SKY/WX    TMP DP  RH WIND       PRES   REMARKS
LA CROSSE      CLOUDY    39  36  89 E10G21    29.88S FOG     WCI  32
PRAIRIE DU CHI LGT RAIN  39  38  97 E8        29.81S WCI  33
BOSCOBEL       CLOUDY    41  40  96 E13G21    29.84S
LONE ROCK      LGT RAIN  39  35  86 E17G23    29.86R WCI  30
PLATTEVILLE    CLOUDY    39  39 100 E16G25    29.79R WCI  31
FORT MC COY    CLOUDY    36  35  96 E16G22    29.89F FOG     WCI  26
CAMP DOUGLAS   LGT RAIN  36  34  93 E12       29.90S WCI  27
MAUSTON-NEW LI LGT RAIN  37  35  94 E7        29.89S WCI  31
VIROQUA        CLOUDY    37  36  97 E22       29.83F WCI  25
WIS DELLS      DRIZZLE   35  33  94 E15G21    29.87S WCI  25
$$

...ELSEWHERE IN WISCONSIN...


CITY           SKY/WX    TMP DP  RH WIND       PRES   REMARKS
MILWAUKEE      LGT RAIN  38  35  89 E15       29.90R FOG     WCI  29
MADISON        LGT RAIN  37  35  92 E14       29.86S WCI  28
GREEN BAY      LGT SNOW  34  34 100 NE13      30.01F FOG     WCI  25
EAU CLAIRE     CLOUDY    37  34  89 NE12      29.94F WCI  29
BLACK RVR FLS  CLOUDY    37  37 100 E12       29.92F FOG     WCI  29
MEDFORD        CLOUDY    33  31  93 E16       29.96S WCI  22
WAUSAU         CLOUDY    34  31  88 E10       29.98R WCI  26
WIS RAPIDS     CLOUDY    35  35 100 E13G20    29.95F WCI  26
MARSHFIELD     LGT SNOW  34  32  92 E15       29.94F FOG     WCI  24
RICE LAKE      CLOUDY    38  30  72 CALM      30.00R
$$

...NORTHEAST IOWA...


CITY           SKY/WX    TMP DP  RH WIND       PRES   REMARKS
WATERLOO       CLOUDY    40  37  89 NE16      29.75S WCI  31
DUBUQUE        RAIN      39  38  96 NE18      29.75S FOG     WCI  30
DECORAH        CLOUDY    37  37 100 E12G18    29.80R FOG     WCI  30
MASON CITY     CLOUDY    37  35  92 NE16      29.82R FOG     WCI  28
CHARLES CITY   CLOUDY    37  37 100 NE17G25   29.79S FOG     WCI  28
OELWEIN        MIX PCPN  39  39 100 E14G21    29.77R WCI  31
$$

...ELSEWHERE IN IOWA...


CITY           SKY/WX    TMP DP  RH WIND       PRES   REMARKS
DES MOINES     DRIZZLE   43  41  93 NE14      29.68S FOG
IOWA CITY      CLOUDY    44  41  89 NE9       29.69F
FORT DODGE     CLOUDY    37  34  87 NE13      29.78R WCI  29
MARSHALLTOWN   CLOUDY    41  40  96 NE21      29.69F
CEDAR RAPIDS   CLOUDY    42  42 100 E15       29.69F
$$

...NORTHERN ILLINOIS...


CITY           SKY/WX    TMP DP  RH WIND       PRES   REMARKS
CHICAGO-OHARE  LGT RAIN  42  39  89 E16       29.80F FOG
CHICAGO-MIDWAY LGT RAIN  42  41  96 E14G25    29.79F FOG
MOLINE         CLOUDY    45  42  89 E14       29.68S
ROCKFORD       LGT RAIN  42  39  89 E15G29    29.76F FOG
PEORIA         CLOUDY    47  46  97 E12       29.65F
$$

NOTE: "FAIR" INDICATES FEW OR NO CLOUDS BELOW 12,000 FEET WITH NO
SIGNIFICANT WEATHER AND/OR OBSTRUCTIONS TO VISIBILITY. WIND
SPEEDS ARE IN MILES-PER-HOUR.




USA.gov is the U.S. government's official web portal to all federal, state and local government web resources and services.